Location: Unspecified
(58.7730°N, 5.8460°E)
Time: 20:54:40
(UTC+02:00)

Cosmos 1674 - Visible Passes

Search period start: 01 October 2016 00:00
Search period end: 11 October 2016 00:00
Orbit: 501 x 524 km, 82.5° (Epoch: 30 September)

Date Brightness Start Highest point End Pass type
(mag) Time Alt. Az. Time Alt. Az. Time Alt. Az.
01 Oct 2.7 20:03:51 10° N 20:07:45 66° ENE 20:11:37 10° SSE visible
01 Oct 5.5 21:40:13 10° NW 21:43:00 19° W 21:45:46 10° SW visible
02 Oct 2.8 19:47:50 10° N 19:51:42 55° ENE 19:55:31 10° SSE visible
02 Oct 5.3 21:24:01 10° NW 21:27:03 22° W 21:30:05 10° SW visible
03 Oct 5.1 21:07:51 10° NNW 21:11:06 25° W 21:14:19 10° SW visible
04 Oct 4.8 20:51:42 10° NNW 20:55:08 29° W 20:58:31 10° SSW visible
05 Oct 4.6 20:35:35 10° NNW 20:39:09 34° W 20:42:40 10° SSW visible
06 Oct 4.2 20:19:29 10° NNW 20:23:09 40° W 20:26:48 10° SSW visible
07 Oct 3.9 20:03:22 10° NNW 20:07:09 47° W 20:10:53 10° S visible
08 Oct 3.5 19:47:16 10° NNW 19:51:07 56° W 19:54:55 10° S visible
09 Oct 3.2 19:31:12 10° NNW 19:35:05 67° W 19:38:57 10° S visible
09 Oct 6.4 21:08:57 10° WNW 21:09:58 11° WNW 21:10:59 10° W visible
10 Oct 2.9 19:15:08 10° NNW 19:19:03 80° W 19:22:55 10° S visible
10 Oct 6.2 20:52:17 10° NW 20:54:02 13° W 20:55:45 10° WSW visible
